Retour au catalogue

CHUANG XIN 1-04

ActifScienceSSO
NORAD 40137·PAYLOAD·🇨🇳 China

Lancé Sep 4, 2014 depuis Jiuquan Satellite Launch Center

Loading…

Prochains Passages (prochaines 24 heures)

TLE

FraisSource: Space-Track

Époque: Sep 14, 2026, 15:00 UTC

1 40137U 14051B   26257.62539659  .00000003  00000-0  18453-4 0  9991
2 40137  98.7106 259.5740 0021139 272.8722  87.0041 14.30426507627339

Suivez CHUANG XIN 1-04 en temps réel avec AllMySat

Download on the App Store